Voltar ao catálogo

STARLINK-32611

AtivoComunicaçõesVLEO
NORAD 61976·PAYLOAD·🇺🇸 United States

Lançado Nov 14, 2024 de Cape Canaveral Space Force Station

Loading…

Próximas Passagens (próximas 24 horas)

TLE

AtualizadoSource: CelesTrak SupGP

Época: Sep 15, 2026, 02:18 UTC

1 61976C 24210T   26258.09631944 -.00059911  00000+0 -21703-2 0  2586
2 61976  43.0028 190.1443 0001432 274.6646 219.5238 15.27603291    12

Acompanhe STARLINK-32611 em tempo real com AllMySat

Download on the App Store